Shepherd Bay, Nunavut

7:47 AM CDT on May 24, 2017 (GMT -0500)
Shepherd Bay

Weather History for CYUS - February, 2012

Change the Weather History Date:

Wednesday, February 1, 2012

  Actual Average Record
Temperature  
Mean Temperature -20 °F -  
Max Temperature -7 °F - - ()
Min Temperature -32 °F -41 °F - ()
Degree Days  
Heating Degree Days 84    
Moisture  
Dew Point -    
Average Humidity    
Maximum Humidity    
Minimum Humidity    
Precipitation  
Precipitation 0.00 in 0.01 in - ()
Sea Level Pressure  
Sea Level Pressure 29.92 in    
Wind  
Wind Speed 10 mph ()    
Max Wind Speed 17 mph    
Max Gust Speed -    
Visibility 5.2 miles    
Events      
T = Trace of Precipitation, MM = Missing Value Source: Averaged Metar Reports

Daily Weather History Graph

Daily Weather History Graph

Search for Another Location

Airport or City:

Trip Planner

Search our weather history database for the weather conditions in past years. The results will help you decide how hot, cold, wet, or windy it might be!

Date:

Astronomy

Feb. 01, 2012 Rise Set
Actual Time 9:42 AM CST 3:12 PM CST
Civil Twilight 8:25 AM CST 4:30 PM CST
Nautical Twilight 7:12 AM CST 5:43 PM CST
Astronomical Twilight 6:04 AM CST 6:51 PM CST
Moon 7:55 AM CST (2/1) 6:10 AM CST (2/1)
Length of Visible Light 8h 04m
Length of Day
5h 29m
Waxing Gibbous, 65% of the Moon is Illuminated
Feb 1
Waxing Gibbous
Feb 7
Full
Feb 14
Last Quarter
Feb 21
New
Feb 29
First Quarter

Hourly Weather History & Observations

Time (CST) Temp. Windchill Dew Point Humidity Pressure Visibility Wind Dir Wind Speed Gust Speed Precip Events Conditions
12:00 AM -19 °F - - % 29.90 in 9 mi ESE 8.1 mph - -  
12:00 AM -18.4 °F -36.6 °F - N/A% 29.90 in 9.0 mi ESE 8.1 mph - N/A   Clear
12:58 AM -18.4 °F -37.9 °F - N/A% 29.87 in 2.8 mi ESE 9.2 mph - N/A   Clear
1:00 AM -18.4 °F -37.9 °F - N/A% 29.90 in 2.5 mi ESE 9.2 mph - N/A   Clear
1:31 AM -18.4 °F -36.6 °F - N/A% 29.88 in 6.0 mi East 8.1 mph - N/A   Scattered Clouds
1:45 AM -16.6 °F -35.7 °F - N/A% 29.88 in 3.0 mi ESE 9.2 mph - N/A   Unknown
1:53 AM -16.6 °F -35.7 °F - N/A% 29.87 in 1.6 mi East 9.2 mph - N/A   Overcast
1:55 AM -16.6 °F -35.7 °F - N/A% 29.87 in 1.4 mi East 9.2 mph - N/A   Overcast
2:00 AM -16.6 °F -34.4 °F - N/A% 29.90 in 1.1 mi East 8.1 mph - N/A   Overcast
2:17 AM -16.6 °F -35.7 °F - N/A% 29.88 in 1.1 mi ESE 9.2 mph - N/A   Mostly Cloudy
2:20 AM -16.6 °F -35.7 °F - N/A% 29.88 in 1.1 mi ESE 9.2 mph - N/A   Overcast
2:39 AM -16.6 °F -37.9 °F - N/A% 29.88 in 1.5 mi ESE 11.5 mph - N/A   Unknown
2:51 AM -16.6 °F -37.9 °F - N/A% 29.88 in 3.0 mi ESE 11.5 mph - N/A   Overcast
2:55 AM -16.6 °F -37.9 °F - N/A% 29.88 in 7.0 mi ESE 11.5 mph - N/A   Overcast
3:00 AM -16 °F - - % 29.91 in 6 mi ESE 11.5 mph - -  
3:00 AM -16.6 °F -36.8 °F - N/A% 29.91 in 6.0 mi ESE 10.4 mph - N/A   Unknown
3:27 AM -16.6 °F -36.8 °F - N/A% 29.88 in 8.0 mi ESE 10.4 mph - N/A   Mostly Cloudy
3:30 AM -16.6 °F -37.9 °F - N/A% 29.88 in 9.0 mi ESE 11.5 mph - N/A   Partly Cloudy
3:37 AM -16.6 °F -36.8 °F - N/A% 29.88 in 9.0 mi ESE 10.4 mph - N/A   Partly Cloudy
3:54 AM -16.6 °F -36.8 °F - N/A% 29.88 in 5.0 mi ESE 10.4 mph - N/A   Mostly Cloudy
4:00 AM -16.6 °F -36.8 °F - N/A% 29.91 in 3.5 mi ESE 10.4 mph - N/A   Unknown
4:03 AM -16.6 °F -36.8 °F - N/A% 29.88 in 3.0 mi East 10.4 mph - N/A   Unknown
4:16 AM -14.8 °F -34.6 °F - N/A% 29.88 in 2.5 mi ESE 10.4 mph - N/A   Overcast
4:17 AM -14.8 °F -35.6 °F - N/A% 29.88 in 2.5 mi ESE 11.5 mph - N/A   Overcast
4:22 AM -14.8 °F -35.6 °F - N/A% 29.88 in 2.5 mi ESE 11.5 mph - N/A   Overcast
4:59 AM -13.0 °F -33.4 °F - N/A% 29.87 in 4.0 mi ESE 11.5 mph - N/A   Unknown
5:00 AM -13.0 °F -33.4 °F - N/A% 29.90 in 4.0 mi ESE 11.5 mph - N/A   Unknown
5:14 AM -13.0 °F -34.3 °F - N/A% 29.87 in 6.0 mi ESE 12.7 mph - N/A   Scattered Clouds
5:45 AM -13.0 °F -33.4 °F - N/A% 29.87 in 6.0 mi ESE 11.5 mph - N/A   Mostly Cloudy
5:56 AM -14.8 °F -36.6 °F - N/A% 29.87 in 5.0 mi ESE 12.7 mph - N/A   Overcast
5:57 AM -14.8 °F -36.6 °F - N/A% 29.87 in 5.0 mi ESE 12.7 mph - N/A   Overcast
6:00 AM -15 °F - - % 29.90 in 5 mi ESE 12.7 mph - -   Overcast
6:12 AM -14.8 °F -36.6 °F - N/A% 29.87 in 4.0 mi ESE 12.7 mph - N/A   Overcast
6:13 AM -14.8 °F -36.6 °F - N/A% 29.87 in 4.0 mi ESE 12.7 mph - N/A   Overcast
6:36 AM -14.8 °F -35.6 °F - N/A% 29.87 in 3.5 mi ESE 11.5 mph - N/A   Overcast
6:37 AM -14.8 °F -35.6 °F - N/A% 29.87 in 3.5 mi ESE 11.5 mph - N/A   Overcast
6:42 AM -14.8 °F -35.6 °F - N/A% 29.87 in 3.0 mi ESE 11.5 mph - N/A   Overcast
6:48 AM -14.8 °F -34.6 °F - N/A% 29.87 in 3.0 mi ESE 10.4 mph - N/A   Overcast
6:56 AM -14.8 °F -34.6 °F - N/A% 29.87 in 4.0 mi ESE 10.4 mph - N/A   Mostly Cloudy
7:00 AM -14.8 °F -34.6 °F - N/A% 29.90 in 4.0 mi ESE 10.4 mph - N/A   Overcast
8:00 AM -11.2 °F -31.1 °F - N/A% 29.91 in 6.0 mi SE 11.5 mph - N/A   Overcast
8:03 AM -11.2 °F -31.1 °F - N/A% 29.88 in 6.0 mi SE 11.5 mph - N/A   Overcast
8:23 AM -11.2 °F -31.1 °F - N/A% 29.88 in 3.0 mi SE 11.5 mph - N/A   Unknown
8:30 AM -9.4 °F -29.8 °F - N/A% 29.88 in 3.0 mi SE 12.7 mph - N/A   Overcast
8:31 AM -9.4 °F -29.8 °F - N/A% 29.88 in 3.0 mi SE 12.7 mph - N/A   Overcast
8:39 AM -9.4 °F -29.8 °F - N/A% 29.88 in 4.0 mi SSE 12.7 mph - N/A   Unknown
9:00 AM -10 °F - - % 29.91 in 4 mi SE 12.7 mph - -   Overcast
9:00 AM -9.4 °F -29.8 °F - N/A% 29.91 in 4.0 mi SSE 12.7 mph - N/A   Overcast
9:19 AM -9.4 °F -31.4 °F - N/A% 29.88 in 4.0 mi SSE 15.0 mph - N/A   Overcast
9:33 AM -9.4 °F -31.4 °F - N/A% 29.88 in 3.0 mi SSE 15.0 mph - N/A   Overcast
9:34 AM -9.4 °F -31.4 °F - N/A% 29.88 in 2.8 mi South 15.0 mph - N/A   Overcast
9:35 AM -9.4 °F -31.4 °F - N/A% 29.88 in 2.6 mi South 15.0 mph - N/A   Overcast
9:41 AM -7.6 °F -29.1 °F - N/A% 29.88 in 2.1 mi South 15.0 mph - N/A   Overcast
9:53 AM -7.6 °F -29.1 °F - N/A% 29.88 in 2.1 mi South 15.0 mph - N/A   Overcast
9:54 AM -7.6 °F -29.1 °F - N/A% 29.88 in 2.1 mi South 15.0 mph - N/A   Overcast
9:57 AM -7.6 °F -29.1 °F - N/A% 29.88 in 2.1 mi South 15.0 mph - N/A   Overcast
9:58 AM -7.6 °F -29.1 °F - N/A% 29.88 in 2.1 mi South 15.0 mph - N/A   Overcast
10:00 AM -7.6 °F -28.3 °F - N/A% 29.91 in 2.2 mi South 13.8 mph - N/A   Overcast
10:04 AM -7.6 °F -28.3 °F - N/A% 29.88 in 2.4 mi South 13.8 mph - N/A   Overcast
10:19 AM -7.6 °F -29.1 °F - N/A% 29.88 in 3.5 mi South 15.0 mph - N/A   Unknown
10:56 AM -9.4 °F -32.8 °F - N/A% 29.89 in 2.8 mi South 17.3 mph - N/A   Clear
11:00 AM -9.4 °F -32.8 °F - N/A% 29.92 in 2.1 mi South 17.3 mph - N/A   Overcast
11:02 AM -9.4 °F - - N/A% 29.89 in 2.0 mi North - - N/A   Overcast
11:51 AM -11.2 °F -32.9 °F - N/A% 29.90 in 3.0 mi SSW 13.8 mph - N/A   Overcast
12:00 PM -11 °F - - % 29.93 in 4 mi SSW 11.5 mph - -   Overcast
12:00 PM -11.2 °F -31.1 °F - N/A% 29.93 in 4.0 mi South 11.5 mph - N/A   Overcast
12:14 PM -11.2 °F -32.9 °F - N/A% 29.90 in 7.0 mi South 13.8 mph - N/A   Overcast
12:16 PM -11.2 °F -32.9 °F - N/A% 29.90 in 7.0 mi South 13.8 mph - N/A   Overcast
12:22 PM -13.0 °F -34.3 °F - N/A% 29.91 in 6.0 mi South 12.7 mph - N/A   Overcast
12:24 PM -13.0 °F -35.2 °F - N/A% 29.91 in 6.0 mi South 13.8 mph - N/A   Overcast
12:37 PM -13.0 °F -35.2 °F - N/A% 29.91 in 5.0 mi South 13.8 mph - N/A   Overcast
1:00 PM -13.0 °F -36.8 °F - N/A% 29.94 in 3.0 mi South 16.1 mph - N/A   Overcast
1:22 PM -13.0 °F -36.0 °F - N/A% 29.92 in 3.5 mi South 15.0 mph - N/A   Overcast
2:00 PM -14.8 °F -37.5 °F - N/A% 29.96 in 7.0 mi South 13.8 mph - N/A   Overcast
3:00 PM -19 °F - - % 29.97 in 9 mi South 11.5 mph - -  
3:00 PM -18.4 °F -40.2 °F - N/A% 29.97 in 9.0 mi South 11.5 mph - N/A   Scattered Clouds
3:19 PM -20.2 °F -43.4 °F - N/A% 29.95 in 9.0 mi South 12.7 mph - N/A   Scattered Clouds
3:28 PM -20.2 °F -43.4 °F - N/A% 29.95 in 9.0 mi South 12.7 mph - N/A   Mostly Cloudy
3:49 PM -20.2 °F -41.3 °F - N/A% 29.97 in 9.0 mi South 10.4 mph - N/A   Overcast
3:54 PM -22.0 °F -42.3 °F - N/A% 29.97 in 9.0 mi South 9.2 mph - N/A   Overcast
4:00 PM -22.0 °F -42.3 °F - N/A% 30.00 in 9.0 mi South 9.2 mph - N/A   Mostly Cloudy
4:24 PM -23.8 °F -45.8 °F - N/A% 29.98 in 9.0 mi South 10.4 mph - N/A   Mostly Cloudy
4:49 PM -23.8 °F -45.8 °F - N/A% 29.98 in 9.0 mi South 10.4 mph - N/A   Overcast
5:00 PM -25.6 °F -48.0 °F - N/A% 30.01 in 9.0 mi South 10.4 mph - N/A   Mostly Cloudy
5:06 PM -25.6 °F -48.0 °F - N/A% 29.98 in 9.0 mi South 10.4 mph - N/A   Partly Cloudy
5:33 PM -25.6 °F -48.0 °F - N/A% 29.99 in 9.0 mi South 10.4 mph - N/A   Partly Cloudy
5:39 PM -25.6 °F -46.8 °F - N/A% 29.99 in 9.0 mi South 9.2 mph - N/A   Mostly Cloudy
5:51 PM -27.4 °F -49.0 °F - N/A% 29.99 in 9.0 mi South 9.2 mph - N/A   Scattered Clouds
6:00 PM -27 °F - - % 30.02 in 9 mi South 10.4 mph - -  
6:00 PM -27.4 °F -50.3 °F - N/A% 30.02 in 9.0 mi South 10.4 mph - N/A   Clear
7:00 PM -27.4 °F -49.0 °F - N/A% 30.03 in 9.0 mi South 9.2 mph - N/A   Clear
8:00 PM -29.2 °F -49.7 °F - N/A% 30.04 in 9.0 mi SSE 8.1 mph - N/A   Clear
9:00 PM -32 °F - - % 30.06 in 9 mi ESE 9.2 mph - -  
9:00 PM -31.0 °F -51.9 °F - N/A% 30.06 in 9.0 mi ESE 8.1 mph - N/A   Clear
10:00 PM -31.0 °F -51.9 °F - N/A% 30.07 in 9.0 mi SE 8.1 mph - N/A   Clear
11:00 PM -31.0 °F -53.4 °F - N/A% 30.08 in 9.0 mi ESE 9.2 mph - N/A   Clear